Regional Weather Roundup
Issued by NWS

Home | Current Version | Previous Version | Text Only | Print | Product List | Glossary Off
Versions: 1 2 3 4 5 6 7 8 9 10 11 12 13 14 15 16 17 18 19 20 21 22 23 24 25 26 27 28 29 30 31 32 33 34 35 36 37 38 39 40 41 42 43 44 45 46 47 48 49 50

000
ASUS43 KOAX 191702
RWRNE

WEATHER ROUNDUP FOR NEBRASKA
NATIONAL WEATHER SERVICE OMAHA NE
1200 PM CDT SUN OCT 19 2014

NOTES: SATELLITE DATA IS BEING USED TO AUGMENT CLOUD COVER ABOVE
       12000 FEET.
       "FAIR" INDICATES FEW OR NO CLOUDS BELOW 12,000 FEET WITH NO
       SIGNIFICANT WEATHER AND/OR OBSTRUCTIONS TO VISIBILITY.

  * THESE STATIONS DO NOT REPORT WEATHER SUCH AS RAIN...SNOW OR FOG.

NEZ001>004-019>022-054>056-191800-
NEBRASKA PANHANDLE

CITY           SKY/WX    TMP DP  RH WIND       PRES   REMARKS
SCOTTSBLUFF    SUNNY     61  43  51 W8        30.10F
ALLIANCE       SUNNY     64  43  46 NE6       30.08S
CHADRON        SUNNY     64  43  46 CALM      30.08S
KIMBALL        SUNNY     65  36  33 N9        30.11S
SIDNEY         SUNNY     66  42  41 NE9       30.09S
$$

NEZ057>060-069>072-079>082-191800-
SOUTHWEST NEBRASKA

CITY           SKY/WX    TMP DP  RH WIND       PRES   REMARKS
NORTH PLATTE   SUNNY     57  44  62 NW7       30.04S
IMPERIAL       SUNNY     63  44  50 N7        30.04S
LEXINGTON      SUNNY     62  47  56 SW7       30.03F
MCCOOK         SUNNY     60  45  57 NW6       30.03F
OGALLALA       SUNNY     65  45  48 N6        30.05R
$$

NEZ005>010-023>029-035>040-094-191800-
NORTH CENTRAL NEBRASKA

CITY           SKY/WX    TMP DP  RH WIND       PRES   REMARKS
VALENTINE      SUNNY     72  42  34 N6        30.01F
AINSWORTH      SUNNY     68  41  38 N12       30.01S
BROKEN BOW     SUNNY     62  45  53 W9        30.01S
O`NEILL        SUNNY     65  47  52 NW10      29.98S
ORD            SUNNY     61  45  55 SW10      30.00F
THEDFORD       SUNNY     69  46  43 NE7       30.03S
$$

NEZ041-046>049-061>064-073>077-083>087-191800-
SOUTH CENTRAL NEBRASKA

CITY           SKY/WX    TMP DP  RH WIND       PRES   REMARKS
GRAND ISLAND   SUNNY     64  45  49 SW15      30.03S
AURORA         SUNNY     64  42  44 SW14      30.03S
HASTINGS       SUNNY     63  43  48 SW15      30.03F
HEBRON         SUNNY     62  44  51 SW17G23   30.06F
HOLDREGE       SUNNY     59  45  58 SW12G17   30.04S
KEARNEY *      SUNNY     61  45  55 S16       30.04S
YORK           SUNNY     64  45  48 SW15G22   30.04S
$$

NEZ011>018-030>034-042>045-191800-
NORTHEAST NEBRASKA

CITY           SKY/WX    TMP DP  RH WIND       PRES   REMARKS
NORFOLK        MOSUNNY   63  45  51 SW17G23   29.98F
ALBION         MOSUNNY   62  45  53 SW12      30.00F
BLAIR          MOSUNNY   62  44  51 SW20G25   30.03F
COLUMBUS *     MOSUNNY   63  43  48 SW10      30.03S
FREMONT        SUNNY     64  45  51 S10       30.02F
TEKAMAH        MOSUNNY   64  44  48 SW14      30.01F
WAYNE          MOSUNNY   63  45  51 SW14      29.98F
$$

NEZ050>053-065>068-078-088>093-191800-
SOUTHEAST NEBRASKA

CITY           SKY/WX    TMP DP  RH WIND       PRES   REMARKS
LINCOLN        SUNNY     64  45  49 SW17G26   30.05F
OMAHA EPPLEY   PTSUNNY   62  45  53 S10       30.04F
BEATRICE       SUNNY     61  47  59 SW16      30.07F
FALLS CITY     SUNNY     62  48  60 S13       30.10F
NEBRASKA CITY  SUNNY     62  44  51 SW17      30.07F
PLATTSMOUTH    SUNNY     62  44  51 SW14G22   30.06F
$$

NEZ044-045-051>053-067-191800-
OMAHA AREA

CITY           SKY/WX    TMP DP  RH WIND       PRES   REMARKS
OMAHA EPPLEY   PTSUNNY   62  45  53 S10       30.04F
BLAIR          MOSUNNY   62  44  51 SW20G25   30.03F
FREMONT        SUNNY     64  45  51 S10       30.02F
MILLARD        SUNNY     64  46  53 SW5       30.04F
OFFUTT AFB     SUNNY     63  51  66 S12       30.04F
PLATTSMOUTH    SUNNY     62  44  51 SW14G22   30.06F
WAHOO          FAIR      64  43  46 SW15G21   30.03F
$$


USA.gov is the U.S. government's official web portal to all federal, state and local government web resources and services.